This is the latest recevied weather packets stored in our database for station/object YO6LRV-3. If no packets are shown the sender has not sent any weather packets the latest 10 day(s).
| Time | Temp. | Humidity | Pressure | Rain* | Wind** | Luminosity | Snow |
|---|---|---|---|---|---|---|---|
| 1788064035 | 20.56° C | 59% | 1017.4 hPa | - | - | - | - |
| 1788063135 | 20.56° C | 60% | 1017.2 hPa | - | - | - | - |
| 1788062235 | 20.56° C | 60% | 1017.1 hPa | - | - | - | - |
| 1788061335 | 20.56° C | 60% | 1017 hPa | - | - | - | - |
| 1788060435 | 20.56° C | 61% | 1016.9 hPa | - | - | - | - |
| 1788059535 | 20.56° C | 60% | 1016.6 hPa | - | - | - | - |
| 1788058634 | 21.11° C | 60% | 1016.8 hPa | - | - | - | - |
| 1788057734 | 21.11° C | 60% | 1016.7 hPa | - | - | - | - |
| 1788056834 | 21.11° C | 60% | 1016.6 hPa | - | - | - | - |
| 1788055934 | 21.11° C | 59% | 1016.7 hPa | - | - | - | - |
| 1788055034 | 21.11° C | 60% | 1016.7 hPa | - | - | - | - |
| 1788054134 | 21.67° C | 60% | 1016.6 hPa | - | - | - | - |
| 1788053234 | 21.67° C | 59% | 1016.6 hPa | - | - | - | - |
| 1788052336 | 21.67° C | 62% | 1016.6 hPa | - | - | - | - |
| 1788051436 | 21.67° C | 62% | 1016.4 hPa | - | - | - | - |
| 1788050536 | 21.67° C | 61% | 1016.5 hPa | - | - | - | - |
| 1788049636 | 21.67° C | 61% | 1016.4 hPa | - | - | - | - |
| 1788046935 | 22.22° C | 56% | 1016.2 hPa | - | - | - | - |
| 1788046035 | 22.22° C | 57% | 1016.2 hPa | - | - | - | - |
| 1788045135 | 22.22° C | 55% | 1016.2 hPa | - | - | - | - |
| 1788044235 | 22.78° C | 55% | 1016.3 hPa | - | - | - | - |
| 1788043341 | 22.78° C | 56% | 1016.3 hPa | - | - | - | - |
| 1788042435 | 22.78° C | 55% | 1016.4 hPa | - | - | - | - |
| 1788041534 | 22.78° C | 54% | 1016.2 hPa | - | - | - | - |
| 1788039734 | 23.33° C | 54% | 1016.1 hPa | - | - | - | - |
* Rain since midnight (hover to see other rain measurements)
** Current wind speed in m/s (hover to see current wind gust speed)